Location: Feydey
(46.3431°N, 7.0106°E)
Time: 19:42:50
(UTC+00:00)

Cosmos 1328 - Pass Details

Date: 26 October 2021
Orbit: 529 x 552 km, 82.5° (Epoch: 03 December)

Event Time Altitude Azimuth Distance (km) Brightness Sun altitude
Rises 18:40:51 0° 328° (NNW) 2,738 7.9 -23.8°
Reaches altitude 10° 18:45:10 10° 284° (WNW) 1,836 7.5 -24.5°
Maximum altitude 18:45:35 10° 278° (W) 1,826 7.5 -24.6°
Drops below altitude 10° 18:46:00 10° 272° (W) 1,834 7.5 -24.7°
Sets 18:50:18 0° 227° (SW) 2,718 7.9 -25.4°
